STARLINK-2012 (47635 NORAD) Tracking and Keplerian Element Data

This shows tracking and keplerian element data for the satellite.

Feedback or suggestion? Click here.




ElementValue
Catalog47635
NameSTARLINK-2012
Epoch Orbit282
Epoch Day60.16668981
Epoch Year2021
RAAN36.7867
Inclination53.05
Eccentricity0.000215
Argument of Perigee91.8656
Mean Anonmoly49.7798
Mean Motion15.86733893
Decay Rate0.00052512
L11 47635U 21012R 21060.16668981 .00052512 00000-0 20307-3 0 9995
L22 47635 53.0500 36.7867 0002150 91.8656 49.7798 15.86733893 2829

Live tracking and technical data element details for STARLINK-2012 (NORAD 47635). STARLINK-2012 can be tracked NOW for your location showing map with azimuth and elevation plus other details from your city location.

Track the satellite on the map from your city or location and see movement details for azimuth, elevation, latitude, longitude, range, height, and movement on the map or in text.







IsCatalogInMostPopularTable: catalog: 47635, numindb: 4
Update: records affected: 1



GetName: 47635 STARLINK-2012

Hit Count: updated at: Mon, 01 Mar 2021 15:55:58 GMT